156P/Russell-LINEAR (2020)

Japanese version
Home page
Updated on April 19, 2021

---------------------------------------------------------------------

* Profile

* Pictures

* Orbital Elements

Epoch 2020 Nov. 7.0 TT = JDT 2459160.5
T 2020 Nov. 17.87368 TT                                 Rudenko
q   1.3330190            (2000.0)            P               Q
n   0.15314481     Peri.    0.42760     +0.81128731     -0.55884275
a   3.4599344      Node    35.36957     +0.53551894     +0.59242151
e   0.6147271      Incl.   17.26300     +0.23458977     +0.58028573
P   6.44
From 1656 observations 2000 Aug. 31-2021 Mar. 13, mean residual 0".6.

* Finding Charts

* Magnitudes Graph

        m1 = 16.8 + 5 log d +   5.0 log r          [   ,-60]  (             - 2020 Sept.18)
        m1 = -3.5 + 5 log d + 120   log r          [-60,  0]  (2020 Sept.18 - 2020 Nov. 17)
        m1 =  9.5 + 5 log d +  15.0 log r(t - 25)  [  0,   ]  (2020 Nov. 17 -             )

---------------------------------------------------------------------

The orbital elements are published on M.P.E.C. 2021-F20.
The charts are made with StellaNavigator Ver.10 (AstroArts).
The magnitudes graphs are made with Comet for Windows.

---------------------------------------------------------------------

Copyright(C) Seiichi Yoshida (comet@aerith.net). All rights reserved.